Terug naar catalogus

STARLINK-11303

ActiefCommunicatieVLEO
NORAD 62096·PAYLOAD·🇺🇸 United States

Gelanceerd Nov 25, 2024 vanaf Cape Canaveral Space Force Station

Loading…

Volgende Passages (komende 24 uur)

TLE

VersSource: CelesTrak SupGP

Epoch: Sep 15, 2026, 02:36 UTC

1 62096C 24220J   26258.10881944 -.00024457  00000+0 -19002-3 0  2587
2 62096  43.0003 341.0931 0001642 278.1129 181.0298 15.70842623    17

Volg STARLINK-11303 in realtime met AllMySat

Download on the App Store